When you browse on this site, cookies collect data to enhance your experience and personalize the content and advertising you see.
Visit our Privacy Policy to learn more. By continuing to use the site, you agree to this use of cookies and data.
  • In Spain
  • List of Countries
  • For 7 days
  • Water Temperature
  • Satellite Maps
  • Weather Map
  • Weather Widgets
  • user-avatar
    Login

    Hourly Weather Balchik

    Today, 18 November, Sunday

    Time Temperature Precipitation Wind Pressure Humidity
    00:00 -4°C° 0 mm 5 mps 749 mmHg 85%
    01:00 -4°C° 0 mm 5 mps 748 mmHg 86%
    02:00 -4°C° 0 mm 5 mps 748 mmHg 86%
    03:00 -4°C° 0 mm 5 mps 748 mmHg 87%
    04:00 -4°C° 0 mm 4 mps 748 mmHg 88%
    05:00 -4°C° 0 mm 4 mps 747 mmHg 89%
    06:00 -3°C° 0 mm 4 mps 747 mmHg 89%
    07:00 -3°C° 0 mm 4 mps 747 mmHg 89%
    08:00 -3°C° 0 mm 4 mps 747 mmHg 89%
    09:00 -2°C° 0 mm 4 mps 747 mmHg 85%
    10:00 0°C° 0 mm 4 mps 747 mmHg 82%
    11:00 +1°C° 0 mm 4 mps 746 mmHg 79%
    12:00 +1°C° 0 mm 4 mps 746 mmHg 79%
    13:00 +3°C° 0 mm 4 mps 745 mmHg 78%
    14:00 +3°C° 0 mm 4 mps 744 mmHg 78%
    15:00 +3°C° 0 mm 4 mps 744 mmHg 80%
    16:00 +2°C° 0 mm 5 mps 743 mmHg 83%
    17:00 +1°C° 0 mm 5 mps 743 mmHg 86%
    18:00 +2°C° 0.2 mm 5 mps 742 mmHg 86%
    19:00 +2°C° 0.2 mm 6 mps 742 mmHg 87%
    20:00 +3°C° 0.2 mm 6 mps 741 mmHg 87%
    21:00 +3°C° 0.5 mm 6 mps 741 mmHg 87%
    22:00 +3°C° 0.5 mm 6 mps 740 mmHg 88%
    23:00 +3°C° 0.5 mm 7 mps 740 mmHg 88%

    Tomorrow, 19 November, Monday

    Time Temperature Precipitation Wind Pressure Humidity
    00:00 +3°C° 1.1 mm 7 mps 739 mmHg 89%
    01:00 +4°C° 1.1 mm 7 mps 739 mmHg 89%
    02:00 +4°C° 1.1 mm 8 mps 738 mmHg 90%
    03:00 +4°C° 2.1 mm 8 mps 737 mmHg 90%
    04:00 +2°C° 2.1 mm 8 mps 737 mmHg 91%
    05:00 +2°C° 2.1 mm 9 mps 736 mmHg 91%
    06:00 +4°C° 1.8 mm 8 mps 735 mmHg 91%
    07:00 +4°C° 1.8 mm 8 mps 735 mmHg 91%
    08:00 +4°C° 1.8 mm 8 mps 735 mmHg 91%
    09:00 +4°C° 0.6 mm 8 mps 735 mmHg 90%
    10:00 +4°C° 0.6 mm 7 mps 735 mmHg 90%
    11:00 +4°C° 0.6 mm 7 mps 735 mmHg 89%
    12:00 +3°C° 0.1 mm 7 mps 735 mmHg 88%
    13:00 +2°C° 0.1 mm 8 mps 735 mmHg 87%
    14:00 +1°C° 0.1 mm 8 mps 736 mmHg 86%
    15:00 0°C° 0 mm 8 mps 736 mmHg 86%
    16:00 0°C° 0 mm 7 mps 737 mmHg 86%
    17:00 -1°C° 0 mm 7 mps 738 mmHg 85%
    18:00 -1°C° 0 mm 7 mps 739 mmHg 86%
    19:00 -1°C° 0 mm 6 mps 739 mmHg 86%
    20:00 -1°C° 0 mm 6 mps 740 mmHg 86%
    21:00 -1°C° 0 mm 6 mps 741 mmHg 87%
    22:00 -2°C° 0 mm 6 mps 742 mmHg 87%
    23:00 -1°C° 0 mm 5 mps 742 mmHg 87%

    Day after tomorrow, 20 November, Tuesday

    Time Temperature Precipitation Wind Pressure Humidity
    00:00 -1°C° 0 mm 5 mps 743 mmHg 88%
    01:00 -1°C° 0 mm 4 mps 743 mmHg 89%
    02:00 -2°C° 0 mm 4 mps 743 mmHg 90%
    03:00 -1°C° 0 mm 3 mps 743 mmHg 90%
    04:00 -1°C° 0 mm 3 mps 744 mmHg 91%
    05:00 -2°C° 0 mm 3 mps 744 mmHg 92%
    06:00 -2°C° 0 mm 3 mps 744 mmHg 89%
    07:00 -1°C° 0 mm 2 mps 744 mmHg 86%
    08:00 -1°C° 0 mm 2 mps 744 mmHg 83%
    09:00 +1°C° 0 mm 2 mps 744 mmHg 77%
    10:00 +2°C° 0 mm 2 mps 745 mmHg 72%
    11:00 +3°C° 0 mm 2 mps 745 mmHg 67%
    12:00 +4°C° 0 mm 2 mps 744 mmHg 67%
    13:00 +4°C° 0 mm 3 mps 744 mmHg 66%
    14:00 +5°C° 0 mm 3 mps 743 mmHg 66%
    15:00 +5°C° 0 mm 3 mps 743 mmHg 71%
    16:00 +4°C° 0 mm 3 mps 743 mmHg 76%
    17:00 +4°C° 0 mm 4 mps 743 mmHg 81%
    18:00 +4°C° 0.1 mm 4 mps 743 mmHg 84%
    19:00 +5°C° 0.1 mm 4 mps 742 mmHg 86%
    20:00 +5°C° 0.1 mm 4 mps 742 mmHg 88%
    21:00 +5°C° 0.3 mm 5 mps 742 mmHg 89%
    22:00 +6°C° 0.3 mm 5 mps 742 mmHg 90%
    23:00 +6°C° 0.3 mm 5 mps 741 mmHg 91%

    21 November, Wednesday

    Time Temperature Precipitation Wind Pressure Humidity
    00:00 +7°C° 0.3 mm 5 mps 741 mmHg 93%
    01:00 +7°C° 0.3 mm 5 mps 740 mmHg 94%
    02:00 +7°C° 0.3 mm 5 mps 740 mmHg 95%
    03:00 +8°C° 0.2 mm 5 mps 739 mmHg 95%
    04:00 +8°C° 0.2 mm 5 mps 739 mmHg 95%
    05:00 +8°C° 0.2 mm 5 mps 738 mmHg 96%
    06:00 +9°C° 0.5 mm 5 mps 738 mmHg 96%
    07:00 +9°C° 0.5 mm 6 mps 738 mmHg 96%
    08:00 +9°C° 0.5 mm 6 mps 737 mmHg 96%
    09:00 +10°C° 1.5 mm 6 mps 737 mmHg 96%
    10:00 +10°C° 1.5 mm 5 mps 737 mmHg 96%
    11:00 +12°C° 1.5 mm 5 mps 736 mmHg 96%
    12:00 +12°C° 2.2 mm 5 mps 736 mmHg 96%
    13:00 +12°C° 2.2 mm 5 mps 735 mmHg 96%
    14:00 +12°C° 2.2 mm 4 mps 735 mmHg 97%
    15:00 +12°C° 1.4 mm 4 mps 735 mmHg 97%
    16:00 +12°C° 1.4 mm 4 mps 735 mmHg 97%
    17:00 +11°C° 1.4 mm 4 mps 735 mmHg 97%
    18:00 +11°C° 0.6 mm 4 mps 735 mmHg 96%
    19:00 +11°C° 0.6 mm 4 mps 735 mmHg 95%
    20:00 +11°C° 0.6 mm 4 mps 736 mmHg 95%
    21:00 +9°C° 0.2 mm 5 mps 736 mmHg 94%
    22:00 +9°C° 0.2 mm 5 mps 736 mmHg 94%
    23:00 +9°C° 0.2 mm 5 mps 737 mmHg 93%

    22 November, Thursday

    Time Temperature Precipitation Wind Pressure Humidity
    00:00 +8°C° 0.2 mm 6 mps 737 mmHg 92%
    01:00 +8°C° 0.2 mm 7 mps 737 mmHg 92%
    02:00 +6°C° 0.2 mm 8 mps 738 mmHg 91%
    03:00 +6°C° 0.2 mm 8 mps 738 mmHg 90%
    04:00 +5°C° 0.2 mm 8 mps 739 mmHg 89%
    05:00 +4°C° 0.2 mm 8 mps 739 mmHg 88%
    06:00 +2°C° 0.2 mm 8 mps 740 mmHg 88%
    07:00 +2°C° 0.2 mm 8 mps 740 mmHg 88%
    08:00 +1°C° 0.2 mm 8 mps 741 mmHg 87%
    09:00 +2°C° 0.2 mm 7 mps 741 mmHg 87%
    10:00 +2°C° 0.2 mm 7 mps 742 mmHg 86%
    11:00 +2°C° 0.2 mm 7 mps 742 mmHg 85%
    12:00 +2°C° 0.1 mm 6 mps 743 mmHg 83%
    13:00 +2°C° 0.1 mm 6 mps 743 mmHg 81%
    14:00 +3°C° 0.1 mm 6 mps 743 mmHg 79%
    15:00 +3°C° 0 mm 5 mps 744 mmHg 80%
    16:00 +2°C° 0 mm 5 mps 744 mmHg 81%
    17:00 +2°C° 0 mm 5 mps 744 mmHg 82%
    18:00 +2°C° 0 mm 5 mps 745 mmHg 82%
    19:00 +3°C° 0 mm 4 mps 745 mmHg 83%
    20:00 +1°C° 0 mm 4 mps 745 mmHg 84%
    21:00 +1°C° 0 mm 4 mps 746 mmHg 84%
    22:00 +1°C° 0 mm 4 mps 746 mmHg 85%
    23:00 +1°C° 0 mm 4 mps 746 mmHg 86%

    23 November, Friday

    Time Temperature Precipitation Wind Pressure Humidity
    00:00 +1°C° 0 mm 4 mps 746 mmHg 87%
    01:00 0°C° 0 mm 4 mps 746 mmHg 88%
    02:00 0°C° 0 mm 4 mps 747 mmHg 89%
    03:00 0°C° 0 mm 4 mps 747 mmHg 88%
    04:00 0°C° 0 mm 4 mps 747 mmHg 88%
    05:00 0°C° 0 mm 4 mps 747 mmHg 87%
    06:00 +1°C° 0 mm 3 mps 747 mmHg 86%
    07:00 +1°C° 0 mm 3 mps 748 mmHg 85%
    08:00 +1°C° 0 mm 3 mps 748 mmHg 84%
    09:00 +2°C° 0 mm 3 mps 748 mmHg 80%
    10:00 +3°C° 0 mm 3 mps 749 mmHg 75%
    11:00 +3°C° 0 mm 3 mps 749 mmHg 70%
    12:00 +4°C° 0 mm 3 mps 749 mmHg 66%
    13:00 +5°C° 0 mm 3 mps 749 mmHg 63%
    14:00 +5°C° 0 mm 3 mps 748 mmHg 59%
    15:00 +5°C° 0 mm 3 mps 748 mmHg 61%
    16:00 +4°C° 0 mm 3 mps 748 mmHg 64%
    17:00 +3°C° 0 mm 3 mps 748 mmHg 66%
    18:00 +3°C° 0 mm 3 mps 749 mmHg 68%
    19:00 +3°C° 0 mm 2 mps 749 mmHg 69%
    20:00 +3°C° 0 mm 2 mps 749 mmHg 71%
    21:00 +2°C° 0 mm 2 mps 749 mmHg 73%
    22:00 +2°C° 0 mm 2 mps 749 mmHg 75%
    23:00 +2°C° 0 mm 2 mps 749 mmHg 77%
    Show more